Tracking 28764 objects as of 13-Apr-2024
HD Live streaming from Space Station
objects crossing your sky now

METEOR 2-17 DEB

Track METEOR 2-17 DEB now!
10-day predictions


NORAD ID: 31398
Int'l Code: 1988-005T
Perigee: 894.0 km
Apogee: 927.2 km
Inclination: 82.5 °
Period: 103.1 minutes
Semi major axis: 7281 km
RCS: 0.0054 m2 (small)
Launch date: January 30, 1988
Source: Commonwealth of Independent States (former USSR) (CIS)
Launch site: PLESETSK MISSILE AND SPACE COMPLEX (PKMTR)

Note: This is SATELLITE DEBRIS
Your satellite tracking list
Your tracking list is empty




NASA's NSSDC Master Catalog

Two Line Element Set (TLE):
1 31398U 88005T   24098.56030147  .00002564  00000-0  18183-2 0  9994
2 31398  82.5393 205.9017 0022786  30.5579 329.6910 13.97215103893433
Source of the keplerian elements: AFSPC